When you browse on this site, cookies collect data to enhance your experience and personalize the content and advertising you see.
Visit our Privacy Policy to learn more. By continuing to use the site, you agree to this use of cookies and data.
  • In United Kingdom
  • List of Countries
  • For 7 days
  • Water Temperature
  • Satellite Maps
  • Weather Map
  • Weather Widgets
  • user-avatar
    Login

    Hourly Weather Pecheniya

    Today, 25 June, Tuesday

    Time Temperature Precipitation Wind Pressure Humidity
    00:00 +20°C° 0 mm 1 mps 745 mmHg 95%
    01:00 +19°C° 0 mm 1 mps 746 mmHg 96%
    02:00 +19°C° 0 mm 1 mps 746 mmHg 96%
    03:00 +19°C° 0 mm 1 mps 746 mmHg 96%
    04:00 +19°C° 0 mm 1 mps 746 mmHg 97%
    05:00 +19°C° 0 mm 1 mps 746 mmHg 97%
    06:00 +19°C° 0 mm 2 mps 746 mmHg 94%
    07:00 +21°C° 0 mm 2 mps 747 mmHg 92%
    08:00 +22°C° 0 mm 3 mps 747 mmHg 89%
    09:00 +24°C° 0.1 mm 3 mps 747 mmHg 85%
    10:00 +25°C° 0.1 mm 3 mps 747 mmHg 82%
    11:00 +26°C° 0.1 mm 3 mps 747 mmHg 78%
    12:00 +26°C° 0.1 mm 3 mps 747 mmHg 76%
    13:00 +27°C° 0.1 mm 4 mps 747 mmHg 74%
    14:00 +27°C° 0.1 mm 4 mps 748 mmHg 71%
    15:00 +27°C° 0 mm 4 mps 747 mmHg 71%
    16:00 +27°C° 0 mm 3 mps 747 mmHg 71%
    17:00 +26°C° 0 mm 3 mps 746 mmHg 71%
    18:00 +25°C° 0 mm 3 mps 747 mmHg 75%
    19:00 +22°C° 0 mm 3 mps 747 mmHg 79%
    20:00 +21°C° 0 mm 2 mps 747 mmHg 83%
    21:00 +20°C° 0 mm 2 mps 747 mmHg 86%
    22:00 +19°C° 0 mm 2 mps 747 mmHg 88%
    23:00 +18°C° 0 mm 2 mps 747 mmHg 91%

    Tomorrow, 26 June, Wednesday

    Time Temperature Precipitation Wind Pressure Humidity
    00:00 +18°C° 0 mm 2 mps 747 mmHg 91%
    01:00 +17°C° 0 mm 2 mps 747 mmHg 92%
    02:00 +17°C° 0 mm 2 mps 747 mmHg 92%
    03:00 +17°C° 0 mm 2 mps 747 mmHg 93%
    04:00 +17°C° 0 mm 2 mps 747 mmHg 93%
    05:00 +17°C° 0 mm 2 mps 746 mmHg 94%
    06:00 +18°C° 0 mm 2 mps 746 mmHg 90%
    07:00 +20°C° 0 mm 3 mps 746 mmHg 87%
    08:00 +22°C° 0 mm 3 mps 747 mmHg 83%
    09:00 +23°C° 0 mm 4 mps 746 mmHg 80%
    10:00 +25°C° 0 mm 4 mps 746 mmHg 77%
    11:00 +26°C° 0 mm 5 mps 746 mmHg 74%
    12:00 +27°C° 0 mm 4 mps 746 mmHg 70%
    13:00 +28°C° 0 mm 3 mps 746 mmHg 67%
    14:00 +29°C° 0 mm 3 mps 745 mmHg 63%
    15:00 +29°C° 0 mm 3 mps 745 mmHg 65%
    16:00 +29°C° 0 mm 3 mps 744 mmHg 66%
    17:00 +29°C° 0 mm 3 mps 744 mmHg 68%
    18:00 +27°C° 0 mm 3 mps 743 mmHg 74%
    19:00 +25°C° 0 mm 3 mps 743 mmHg 80%
    20:00 +24°C° 0 mm 3 mps 743 mmHg 87%
    21:00 +22°C° 0 mm 3 mps 742 mmHg 88%
    22:00 +21°C° 0 mm 3 mps 742 mmHg 89%
    23:00 +20°C° 0 mm 3 mps 742 mmHg 90%

    Day after tomorrow, 27 June, Thursday

    Time Temperature Precipitation Wind Pressure Humidity
    00:00 +20°C° 0 mm 3 mps 741 mmHg 89%
    01:00 +20°C° 0 mm 3 mps 741 mmHg 88%
    02:00 +21°C° 0 mm 3 mps 741 mmHg 87%
    03:00 +21°C° 0 mm 3 mps 740 mmHg 87%
    04:00 +21°C° 0 mm 4 mps 739 mmHg 87%
    05:00 +21°C° 0 mm 4 mps 739 mmHg 87%
    06:00 +22°C° 0.4 mm 5 mps 739 mmHg 86%
    07:00 +23°C° 0.4 mm 6 mps 738 mmHg 85%
    08:00 +26°C° 0.4 mm 6 mps 738 mmHg 84%
    09:00 +26°C° 1.5 mm 7 mps 738 mmHg 84%
    10:00 +26°C° 1.5 mm 7 mps 738 mmHg 84%
    11:00 +27°C° 1.5 mm 7 mps 738 mmHg 83%
    12:00 +27°C° 0.9 mm 8 mps 738 mmHg 78%
    13:00 +27°C° 0.9 mm 8 mps 738 mmHg 73%
    14:00 +27°C° 0.9 mm 8 mps 738 mmHg 68%
    15:00 +26°C° 0 mm 8 mps 737 mmHg 69%
    16:00 +24°C° 0 mm 7 mps 737 mmHg 70%
    17:00 +23°C° 0 mm 7 mps 737 mmHg 71%
    18:00 +22°C° 0 mm 6 mps 737 mmHg 75%
    19:00 +21°C° 0 mm 5 mps 737 mmHg 79%
    20:00 +19°C° 0 mm 5 mps 736 mmHg 82%
    21:00 +18°C° 0 mm 4 mps 737 mmHg 83%
    22:00 +17°C° 0 mm 4 mps 737 mmHg 84%
    23:00 +15°C° 0 mm 4 mps 737 mmHg 84%

    28 June, Friday

    Time Temperature Precipitation Wind Pressure Humidity
    00:00 +15°C° 0 mm 4 mps 737 mmHg 88%
    01:00 +14°C° 0 mm 4 mps 737 mmHg 91%
    02:00 +14°C° 0 mm 4 mps 737 mmHg 94%
    03:00 +13°C° 0 mm 4 mps 738 mmHg 94%
    04:00 +13°C° 0 mm 4 mps 738 mmHg 94%
    05:00 +12°C° 0 mm 4 mps 738 mmHg 94%
    06:00 +13°C° 0 mm 5 mps 738 mmHg 88%
    07:00 +13°C° 0 mm 5 mps 738 mmHg 83%
    08:00 +14°C° 0 mm 6 mps 738 mmHg 77%
    09:00 +15°C° 0 mm 6 mps 739 mmHg 72%
    10:00 +16°C° 0 mm 7 mps 739 mmHg 67%
    11:00 +16°C° 0 mm 7 mps 739 mmHg 62%
    12:00 +17°C° 0.1 mm 7 mps 739 mmHg 64%
    13:00 +17°C° 0.1 mm 7 mps 739 mmHg 65%
    14:00 +18°C° 0.1 mm 7 mps 739 mmHg 66%
    15:00 +18°C° 0.2 mm 7 mps 739 mmHg 67%
    16:00 +18°C° 0.2 mm 7 mps 739 mmHg 69%
    17:00 +18°C° 0.2 mm 8 mps 738 mmHg 71%
    18:00 +17°C° 0.1 mm 7 mps 739 mmHg 74%
    19:00 +16°C° 0.1 mm 6 mps 739 mmHg 78%
    20:00 +15°C° 0.1 mm 5 mps 739 mmHg 81%
    21:00 +14°C° 0 mm 4 mps 739 mmHg 83%
    22:00 +13°C° 0 mm 4 mps 739 mmHg 85%
    23:00 +12°C° 0 mm 3 mps 739 mmHg 87%

    29 June, Saturday

    Time Temperature Precipitation Wind Pressure Humidity
    00:00 +11°C° 0 mm 3 mps 740 mmHg 88%
    01:00 +10°C° 0 mm 3 mps 740 mmHg 90%
    02:00 +10°C° 0 mm 3 mps 740 mmHg 91%
    03:00 +9°C° 0 mm 3 mps 740 mmHg 92%
    04:00 +9°C° 0 mm 3 mps 740 mmHg 93%
    05:00 +8°C° 0 mm 4 mps 740 mmHg 93%
    06:00 +10°C° 0 mm 4 mps 741 mmHg 89%
    07:00 +11°C° 0 mm 4 mps 741 mmHg 85%
    08:00 +12°C° 0 mm 5 mps 741 mmHg 81%
    09:00 +13°C° 0 mm 5 mps 741 mmHg 76%
    10:00 +14°C° 0 mm 5 mps 741 mmHg 70%
    11:00 +15°C° 0 mm 6 mps 741 mmHg 65%
    12:00 +16°C° 0 mm 6 mps 741 mmHg 62%
    13:00 +16°C° 0 mm 6 mps 741 mmHg 58%
    14:00 +17°C° 0 mm 6 mps 741 mmHg 55%
    15:00 +17°C° 0 mm 6 mps 741 mmHg 58%
    16:00 +17°C° 0 mm 6 mps 741 mmHg 61%
    17:00 +17°C° 0 mm 5 mps 741 mmHg 65%
    18:00 +17°C° 0 mm 4 mps 741 mmHg 70%
    19:00 +16°C° 0 mm 3 mps 741 mmHg 76%
    20:00 +15°C° 0 mm 2 mps 741 mmHg 82%
    21:00 +14°C° 0 mm 2 mps 741 mmHg 83%
    22:00 +12°C° 0 mm 3 mps 741 mmHg 83%
    23:00 +12°C° 0 mm 3 mps 741 mmHg 84%

    30 June, Sunday

    Time Temperature Precipitation Wind Pressure Humidity
    00:00 +12°C° 0 mm 3 mps 741 mmHg 80%
    01:00 +12°C° 0 mm 3 mps 741 mmHg 77%
    02:00 +13°C° 0 mm 3 mps 741 mmHg 74%
    03:00 +13°C° 0 mm 3 mps 741 mmHg 72%
    04:00 +13°C° 0 mm 3 mps 740 mmHg 70%
    05:00 +14°C° 0 mm 3 mps 740 mmHg 69%
    06:00 +15°C° 0 mm 4 mps 740 mmHg 71%
    07:00 +16°C° 0 mm 5 mps 740 mmHg 74%
    08:00 +19°C° 0 mm 6 mps 740 mmHg 76%
    09:00 +20°C° 0 mm 6 mps 740 mmHg 72%
    10:00 +21°C° 0 mm 6 mps 741 mmHg 68%
    11:00 +23°C° 0 mm 6 mps 741 mmHg 63%
    12:00 +23°C° 0 mm 5 mps 740 mmHg 63%
    13:00 +25°C° 0 mm 5 mps 740 mmHg 62%
    14:00 +26°C° 0 mm 5 mps 740 mmHg 61%
    15:00 +26°C° 0 mm 5 mps 740 mmHg 63%
    16:00 +26°C° 0 mm 4 mps 740 mmHg 65%
    17:00 +26°C° 0 mm 4 mps 740 mmHg 66%
    18:00 +25°C° 0 mm 3 mps 740 mmHg 70%
    19:00 +23°C° 0 mm 2 mps 739 mmHg 74%
    20:00 +21°C° 0 mm 2 mps 739 mmHg 78%
    21:00 +20°C° 0 mm 2 mps 739 mmHg 80%
    22:00 +19°C° 0 mm 2 mps 739 mmHg 81%
    23:00 +18°C° 0 mm 3 mps 739 mmHg 83%
    Show more